This is the latest recevied weather packets stored in our database for station/object AJ1L. If no packets are shown the sender has not sent any weather packets the latest 10 day(s).
| Time | Temp. | Humidity | Pressure | Rain* | Wind** | Luminosity | Snow |
|---|---|---|---|---|---|---|---|
| 1777582640 | 12.22° C | 83% | 1005.1 hPa | 0.25 mm | - | - | - |
| 1777581641 | 12.22° C | 83% | 1004.9 hPa | 0.25 mm | - | - | - |
| 1777580640 | 12.78° C | 81% | 1005 hPa | 0 mm | - | - | - |
| 1777579641 | 12.78° C | 83% | 1004.9 hPa | 0 mm | - | - | - |
| 1777578641 | 12.22° C | 83% | 1005.1 hPa | 0 mm | - | - | - |
| 1777577640 | 12.22° C | 84% | 1005.3 hPa | 0 mm | - | - | - |
| 1777576640 | 12.22° C | 86% | 1005.4 hPa | 0 mm | - | - | - |
| 1777575640 | 11.67° C | 86% | 1005.5 hPa | 0 mm | - | - | - |
| 1777574640 | 11.11° C | 89% | 1005.5 hPa | 0 mm | - | - | - |
| 1777573640 | 11.11° C | 91% | 1005.8 hPa | 0 mm | - | - | - |
| 1777572640 | 11.11° C | 91% | 1006 hPa | 0 mm | - | - | - |
| 1777571640 | 11.11° C | 93% | 1006.1 hPa | 0.25 mm | - | - | - |
| 1777570641 | 11.11° C | 93% | 1006.4 hPa | 0.25 mm | - | - | - |
| 1777569640 | 10.56° C | 93% | 1006.6 hPa | 0.25 mm | - | - | - |
| 1777568640 | 10.56° C | 93% | 1006.6 hPa | 0.51 mm | - | - | - |
| 1777567640 | 10.56° C | 92% | 1006.5 hPa | 0.25 mm | - | - | - |
| 1777566640 | 11.11° C | 93% | 1006.6 hPa | 0.25 mm | - | - | - |
| 1777565640 | 10.56° C | 93% | 1006.7 hPa | 0.25 mm | - | - | - |
| 1777564640 | 10.56° C | 95% | 1006.8 hPa | 0 mm | - | - | - |
| 1777563640 | 10° C | 96% | 1006.6 hPa | 0 mm | - | - | - |
| 1777562640 | 9.44° C | 96% | 1006.7 hPa | 0 mm | - | - | - |
| 1777561640 | 8.89° C | 96% | 1006.8 hPa | 0 mm | - | - | - |
| 1777560640 | 8.89° C | 96% | 1006.9 hPa | 0 mm | - | - | - |
| 1777559640 | 8.89° C | 96% | 1007.1 hPa | 0 mm | - | - | - |
| 1777558640 | 8.89° C | 96% | 1007.4 hPa | 0 mm | - | - | - |
* Rain latest hour (hover to see other rain measurements)
** Current wind speed in m/s (hover to see current wind gust speed)